Weather History for Grafton, ND

Change the Weather History Date:

Thursday, January 5, 2012

  Actual Average Record
Temperature  
Mean Temperature 32 °F -  
Max Temperature 50 °F 11 °F 50 °F (2012)
Min Temperature 15 °F -2 °F -33 °F (1960)
Degree Days  
Heating Degree Days 32    
Moisture  
Dew Point 29 °F    
Average Humidity 76    
Maximum Humidity 100    
Minimum Humidity 50    
Precipitation  
Precipitation 0.00 in - - ()
Sea Level Pressure  
Sea Level Pressure 29.56 in    
Wind  
Wind Speed 10 mph (SW)    
Max Wind Speed 18 mph    
Max Gust Speed 24 mph    
Visibility 10 miles    
Events      
Averages and records for this station are not official NWS values.
T = Trace of Precipitation, MM = Missing Value Source: NWS Daily Summary

Daily Weather History Graph

Daily Weather History Graph

Search for Another Location

Airport:

Trip Planner

Search our weather history database for the weather conditions in past years. The results will help you decide how hot, cold, wet, or windy it might be!

Date:

Astronomy

Jan. 05, 2012 Rise Set
Actual Time 8:20 AM CST 4:49 PM CST
Civil Twilight 7:44 AM CST 5:25 PM CST
Nautical Twilight 7:04 AM CST 6:05 PM CST
Astronomical Twilight 6:26 AM CST 6:43 PM CST
Moon 1:53 PM CST (1/5) 5:07 AM CST (1/5)
Length of Visible Light 9h 41m
Length of Day
8h 28m
Waxing Gibbous, 88% of the Moon is Illuminated
Jan 5
Waxing Gibbous
Jan 9
Full
Jan 16
Last Quarter
Jan 23
New
Jan 30
First Quarter

Hourly Weather History & Observations

Time (CST) Temp. Windchill Dew Point Humidity Pressure Visibility Wind Dir Wind Speed Gust Speed Precip Events Conditions
12:15 AM 15.8 °F 5.1 °F 15.8 °F 100% 29.84 in 5.0 mi SSW 8.1 mph - N/A   Clear
12:35 AM 15.8 °F 3.4 °F 15.8 °F 100% 29.83 in 6.0 mi SSW 10.4 mph - N/A   Clear
12:55 AM 19.4 °F 9.5 °F 17.6 °F 93% 29.81 in 9.0 mi SSW 8.1 mph - N/A   Clear
1:15 AM 23.0 °F 13.9 °F 21.2 °F 93% 29.80 in 10.0 mi South 8.1 mph - N/A   Clear
1:35 AM 21.2 °F 11.7 °F 19.4 °F 93% 29.79 in 10.0 mi SSW 8.1 mph - N/A   Clear
1:55 AM 21.2 °F 12.6 °F 19.4 °F 93% 29.78 in 10.0 mi South 6.9 mph - N/A   Clear
2:15 AM 19.4 °F 9.5 °F 19.4 °F 100% 29.75 in 10.0 mi SSE 8.1 mph - N/A   Clear
2:35 AM 19.4 °F 10.4 °F 19.4 °F 100% 29.74 in 10.0 mi SSE 6.9 mph - N/A   Clear
2:55 AM 21.2 °F 12.6 °F 21.2 °F 100% 29.73 in 10.0 mi South 6.9 mph - N/A   Clear
3:15 AM 21.2 °F 12.6 °F 21.2 °F 100% 29.72 in 10.0 mi South 6.9 mph - N/A   Clear
3:35 AM 23.0 °F 13.9 °F 21.2 °F 93% 29.69 in 10.0 mi South 8.1 mph - N/A   Clear
3:55 AM 23.0 °F 12.4 °F 23.0 °F 100% 29.68 in 10.0 mi SSW 10.4 mph - N/A   Clear
4:15 AM 24.8 °F 14.6 °F 24.8 °F 100% 29.67 in 10.0 mi SSW 10.4 mph - N/A   Clear
4:35 AM 24.8 °F 15.3 °F 24.8 °F 100% 29.66 in 10.0 mi SSW 9.2 mph - N/A   Clear
4:55 AM 26.6 °F 16.2 °F 26.6 °F 100% 29.63 in 10.0 mi South 11.5 mph - N/A   Clear
5:15 AM 26.6 °F 16.8 °F 26.6 °F 100% 29.62 in 10.0 mi South 10.4 mph - N/A   Clear
5:35 AM 26.6 °F 19.1 °F 26.6 °F 100% 29.62 in 10.0 mi South 6.9 mph - N/A   Clear
5:55 AM 26.6 °F 19.1 °F 26.6 °F 100% 29.62 in 10.0 mi SSW 6.9 mph - N/A   Clear
6:15 AM 28.4 °F 20.4 °F 26.6 °F 93% 29.60 in 10.0 mi SW 8.1 mph - N/A   Clear
6:35 AM 30.2 °F 20.8 °F 28.4 °F 93% 29.59 in 10.0 mi WSW 11.5 mph - N/A   Clear
6:55 AM 33.8 °F 24.3 °F 30.2 °F 87% 29.57 in 10.0 mi WSW 13.8 mph - N/A   Clear
7:15 AM 35.6 °F 25.2 °F 30.2 °F 81% 29.57 in 10.0 mi West 18.4 mph - N/A   Unknown
7:35 AM 37.4 °F 27.8 °F 32.0 °F 81% 29.56 in 10.0 mi West 17.3 mph - N/A   Clear
7:55 AM 37.4 °F 28.2 °F 30.2 °F 75% 29.55 in 10.0 mi WSW 16.1 mph - N/A   Clear
8:15 AM 37.4 °F 27.5 °F 32.0 °F 81% 29.55 in 10.0 mi WSW 18.4 mph - N/A   Clear
8:35 AM 37.4 °F 28.2 °F 30.2 °F 75% 29.54 in 10.0 mi WSW 16.1 mph - N/A   Clear
8:55 AM 39.2 °F 30.2 °F 30.2 °F 70% 29.54 in 10.0 mi WSW 17.3 mph - N/A   Clear
9:35 AM 39.2 °F 30.5 °F 30.2 °F 70% 29.54 in 10.0 mi WSW 16.1 mph - N/A   Clear
9:55 AM 37.4 °F 27.5 °F 30.2 °F 75% 29.55 in 10.0 mi WSW 18.4 mph - N/A   Clear
10:15 AM 39.2 °F 30.5 °F 32.0 °F 75% 29.55 in 10.0 mi WSW 16.1 mph - N/A   Clear
10:35 AM 41.0 °F 34.3 °F 32.0 °F 70% 29.55 in 10.0 mi WSW 11.5 mph - N/A   Clear
10:55 AM 42.8 °F 37.5 °F 32.0 °F 66% 29.55 in 10.0 mi WSW 9.2 mph - N/A   Clear
11:15 AM 42.8 °F 37.0 °F 32.0 °F 66% 29.54 in 10.0 mi SW 10.4 mph - N/A   Clear
11:35 AM 44.6 °F 39.7 °F 32.0 °F 61% 29.53 in 10.0 mi SW 9.2 mph - N/A   Clear
11:55 AM 44.6 °F 40.2 °F 32.0 °F 61% 29.52 in 10.0 mi SSW 8.1 mph - N/A   Clear
12:15 PM 44.6 °F 40.2 °F 32.0 °F 61% 29.51 in 10.0 mi SW 8.1 mph - N/A   Clear
12:35 PM 46.4 °F 42.9 °F 32.0 °F 57% 29.49 in 10.0 mi SSW 6.9 mph - N/A   Clear
12:55 PM 44.6 °F 41.4 °F 32.0 °F 61% 29.48 in 10.0 mi SW 5.8 mph - N/A   Clear
1:15 PM 46.4 °F 41.1 °F 32.0 °F 57% 29.47 in 10.0 mi WSW 11.5 mph - N/A   Clear
1:35 PM 46.4 °F 41.1 °F 32.0 °F 57% 29.47 in 10.0 mi West 11.5 mph - N/A   Clear
1:55 PM 46.4 °F 42.9 °F 32.0 °F 57% 29.47 in 10.0 mi WSW 6.9 mph - N/A   Clear
2:15 PM 46.4 °F - 33.8 °F 62% 29.46 in 10.0 mi Calm Calm - N/A   Clear
2:35 PM 46.4 °F 42.9 °F 33.8 °F 62% 29.45 in 10.0 mi ESE 6.9 mph - N/A   Clear
2:55 PM 44.6 °F 43.1 °F 33.8 °F 66% 29.45 in 10.0 mi South 3.5 mph - N/A   Clear
3:15 PM 50.0 °F - 32.0 °F 50% 29.45 in 10.0 mi West 11.5 mph - N/A   Clear
3:35 PM 48.2 °F - 35.6 °F 62% 29.44 in 10.0 mi West 10.4 mph - N/A   Clear
3:55 PM 46.4 °F 40.1 °F 33.8 °F 62% 29.44 in 10.0 mi West 15.0 mph 24.2 mph N/A   Clear
4:15 PM 46.4 °F 40.4 °F 32.0 °F 57% 29.44 in 10.0 mi West 13.8 mph - N/A   Clear
4:35 PM 48.2 °F - 32.0 °F 54% 29.44 in 10.0 mi West 15.0 mph 24.2 mph N/A   Clear
4:55 PM 44.6 °F 38.8 °F 32.0 °F 61% 29.45 in 10.0 mi West 11.5 mph 18.4 mph N/A   Clear
5:15 PM 44.6 °F 39.2 °F 32.0 °F 61% 29.45 in 10.0 mi WNW 10.4 mph - N/A   Clear
5:35 PM 44.6 °F 43.1 °F 32.0 °F 61% 29.45 in 10.0 mi NNW 3.5 mph - N/A   Clear
6:15 PM 42.8 °F 38.6 °F 32.0 °F 66% 29.45 in 10.0 mi West 6.9 mph - N/A   Clear
6:35 PM 39.2 °F 34.2 °F 32.0 °F 75% 29.45 in 10.0 mi SW 6.9 mph - N/A   Clear
6:55 PM 41.0 °F 33.9 °F 32.0 °F 70% 29.45 in 10.0 mi West 12.7 mph 17.3 mph N/A   Clear
7:15 PM 42.8 °F 35.4 °F 32.0 °F 66% 29.45 in 10.0 mi WNW 15.0 mph - N/A   Clear
7:35 PM 44.6 °F 37.8 °F 32.0 °F 61% 29.46 in 10.0 mi WNW 15.0 mph - N/A   Clear
7:55 PM 42.8 °F 34.5 °F 32.0 °F 66% 29.46 in 10.0 mi WNW 18.4 mph 23.0 mph N/A   Clear
8:15 PM 42.8 °F 34.5 °F 32.0 °F 66% 29.46 in 10.0 mi WNW 18.4 mph - N/A   Clear
8:35 PM 42.8 °F 34.5 °F 32.0 °F 66% 29.46 in 10.0 mi WNW 18.4 mph 24.2 mph N/A   Clear
8:55 PM 42.8 °F 34.5 °F 32.0 °F 66% 29.47 in 10.0 mi WNW 18.4 mph 21.9 mph N/A   Clear
9:15 PM 41.0 °F 31.9 °F 32.0 °F 70% 29.48 in 10.0 mi WNW 19.6 mph 23.0 mph N/A   Clear
9:35 PM 41.0 °F 30.9 °F 32.0 °F 70% 29.48 in 10.0 mi WNW 24.2 mph 29.9 mph N/A   Clear
9:55 PM 41.0 °F 31.6 °F 32.0 °F 70% 29.49 in 10.0 mi WNW 20.7 mph 31.1 mph N/A   Clear
10:15 PM 39.2 °F 29.6 °F 32.0 °F 75% 29.50 in 10.0 mi WNW 19.6 mph 27.6 mph N/A   Clear
10:35 PM 39.2 °F 30.2 °F 32.0 °F 75% 29.50 in 10.0 mi WNW 17.3 mph - N/A   Clear
11:15 PM 39.2 °F 29.3 °F 32.0 °F 75% 29.51 in 10.0 mi WNW 20.7 mph 31.1 mph N/A   Clear
11:35 PM 39.2 °F 29.8 °F 32.0 °F 75% 29.51 in 10.0 mi WNW 18.4 mph 25.3 mph N/A   Clear
11:55 PM 39.2 °F 29.8 °F 32.0 °F 75% 29.50 in 10.0 mi WNW 18.4 mph 23.0 mph N/A   Clear